Change the Weather History Date:

Tuesday, July 9, 2013

  Actual Average Record
Temperature  
Mean Temperature 71 °F 73 °F  
Max Temperature 81 °F 87 °F 104 °F (1940)
Min Temperature 60 °F 59 °F 49 °F (1944)
Degree Days  
Heating Degree Days 0 1  
Month to date heating degree days 0 9  
Since 1 June heating degree days 59 98  
Since 1 July heating degree days 0 9  
Cooling Degree Days 6 8  
Month to date cooling degree days 107 68  
Year to date cooling degree days 213 195  
Since 1 June cooling degree days 200 175  
Growing Degree Days 20 (Base 50)    
Moisture  
Dew Point 56 °F    
Average Humidity 68    
Maximum Humidity 100    
Minimum Humidity 36    
Precipitation  
Precipitation T in 0.06 in 0.71 in (1965)
Month to date precipitation 0.39 0.52  
Year to date precipitation 11.42 7.73  
Sea Level Pressure  
Sea Level Pressure 30.06 in    
Wind  
Wind Speed 8 mph (NW)    
Max Wind Speed 23 mph    
Max Gust Speed 30 mph    
Visibility 9 miles    
Events Rain , Thunderstorm    
T = Trace of Precipitation, MM = Missing Value Source: NWS Daily Summary

Daily Weather History Graph

Daily Weather History Graph

Search for Another Location

Airport or City:

Trip Planner

Search our weather history database for the weather conditions in past years. The results will help you decide how hot, cold, wet, or windy it might be!

Date:

Astronomy

Jul. 09, 2013 Rise Set
Actual Time 5:20 AM MDT 8:56 PM MDT
Civil Twilight 4:42 AM MDT 9:34 PM MDT
Nautical Twilight 3:51 AM MDT 10:24 PM MDT
Astronomical Twilight 2:43 AM MDT 11:32 PM MDT
Moon 6:56 AM MDT (7/9) 9:25 PM MDT (7/9)
Length of Visible Light 16h 51m
Length of Day
15h 35m
New Moon, 2% of the Moon is Illuminated
Jul 9
New Moon
Jul 15
First Quarter
Jul 22
Full
Jul 29
Last Quarter
Aug 6
New

Hourly Weather History & Observations

Time (MDT) Temp. Dew Point Humidity Pressure Visibility Wind Dir Wind Speed Gust Speed Precip Events Conditions
12:53 AM 63.0 °F 61.0 °F 93% 29.95 in 10.0 mi WSW 5.8 mph - 0.01 in   Clear
1:08 AM 64.4 °F 62.6 °F 94% 30.00 in 10.0 mi South 4.6 mph - 0.00 in Rain , Thunderstorm Light Rain
1:23 AM 64.4 °F 60.8 °F 88% 30.00 in 10.0 mi WNW 4.6 mph - 0.00 in Rain Light Rain
1:53 AM 63.0 °F 61.0 °F 93% 29.97 in 10.0 mi WSW 5.8 mph - 0.00 in   Clear
2:53 AM 63.0 °F 61.0 °F 93% 29.95 in 10.0 mi NW 4.6 mph - N/A   Clear
3:53 AM 62.1 °F 60.1 °F 93% 29.96 in 10.0 mi SW 5.8 mph - N/A   Clear
4:53 AM 61.0 °F 60.1 °F 97% 29.99 in 9.0 mi SW 3.5 mph - N/A   Clear
5:01 AM 62.6 °F 60.8 °F 94% 30.05 in 8.0 mi SW 6.9 mph - N/A   Scattered Clouds
5:12 AM 62.6 °F 60.8 °F 94% 30.05 in 5.0 mi West 5.8 mph - N/A   Mostly Cloudy
5:46 AM 60.8 °F 59.0 °F 94% 30.07 in 4.0 mi WNW 4.6 mph - N/A   Scattered Clouds
5:53 AM 61.0 °F 59.0 °F 93% 30.01 in 4.0 mi WNW 4.6 mph - N/A   Mostly Cloudy
6:02 AM 60.8 °F 60.8 °F 100% 30.07 in 5.0 mi NW 6.9 mph - N/A   Mostly Cloudy
6:53 AM 61.0 °F 59.0 °F 93% 30.06 in 10.0 mi WNW 5.8 mph - N/A   Partly Cloudy
7:53 AM 64.9 °F 57.9 °F 78% 30.08 in 10.0 mi NW 8.1 mph - N/A   Scattered Clouds
8:53 AM 68.0 °F 54.0 °F 61% 30.10 in 10.0 mi NW 15.0 mph - N/A   Clear
9:53 AM 70.0 °F 55.9 °F 61% 30.10 in 10.0 mi NW 11.5 mph - N/A   Clear
10:53 AM 73.0 °F 55.0 °F 53% 30.11 in 10.0 mi NW 11.5 mph - N/A   Clear
11:53 AM 75.9 °F 54.0 °F 46% 30.10 in 10.0 mi NNW 12.7 mph 18.4 mph N/A   Clear
12:53 PM 77.0 °F 53.1 °F 43% 30.10 in 10.0 mi NW 12.7 mph 21.9 mph N/A   Partly Cloudy
1:53 PM 78.1 °F 53.1 °F 42% 30.09 in 10.0 mi NNW 17.3 mph 23.0 mph N/A   Partly Cloudy
2:53 PM 80.1 °F 51.1 °F 36% 30.09 in 10.0 mi NW 12.7 mph 25.3 mph N/A   Clear
3:53 PM 80.1 °F 51.1 °F 36% 30.10 in 10.0 mi North 11.5 mph - N/A   Scattered Clouds
4:53 PM 78.1 °F 50.0 °F 37% 30.10 in 10.0 mi NNW 8.1 mph - N/A   Clear
5:53 PM 78.1 °F 51.1 °F 39% 30.10 in 10.0 mi NNW 11.5 mph - N/A   Clear
6:53 PM 77.0 °F 51.1 °F 40% 30.10 in 10.0 mi North 6.9 mph - N/A   Clear
7:53 PM 75.0 °F 50.0 °F 41% 30.10 in 10.0 mi North 5.8 mph - N/A   Clear
8:53 PM 70.0 °F 53.1 °F 55% 30.11 in 10.0 mi NE 6.9 mph - N/A   Clear
9:53 PM 66.0 °F 53.1 °F 63% 30.13 in 10.0 mi NE 5.8 mph - N/A   Clear
10:53 PM 66.9 °F 52.0 °F 59% 30.12 in 10.0 mi ENE 4.6 mph - N/A   Clear
11:53 PM 64.0 °F 55.0 °F 73% 30.11 in 10.0 mi East 3.5 mph - N/A   Clear